WV8BRW Weather Reports


time (UTC)temp
C
wind
direction
speed
KPH
gust
KPH
rain 1hr
cm
rain 24hr
cm
rain mn
cm
humidity
%
barometer
mb
20260508151410 17 306 3.2 3.2 0.00 0.00 0.00 47 1015.0
20260508150906 17 336 1.6 3.2 0.00 0.00 0.00 51 1014.9
20260508150403 17 274 1.6 3.2 0.00 0.00 0.00 46 1014.9
20260508145859 16 51 3.2 3.2 0.00 0.00 0.00 50 1014.8
20260508145355 16 215 6.4 8.0 0.00 0.00 0.00 50 1014.9
20260508144852 16 188 3.2 3.2 0.00 0.00 0.00 49 1014.9
20260508144350 16 311 1.6 3.2 0.00 0.00 0.00 53 1014.8
20260508143848 16 341 0.0 0.0 0.00 0.00 0.00 53 1015.3
20260508143345 16 356 4.8 4.8 0.00 0.00 0.00 50 1014.9
20260508142841 16 340 0.0 1.6 0.00 0.00 0.00 57 1015.0
20260508142338 16 323 0.0 0.0 0.00 0.00 0.00 57 1014.8
20260508141834 15 290 3.2 3.2 0.00 0.00 0.00 58 1015.0
20260508141332 16 358 1.6 1.6 0.00 0.00 0.00 58 1015.0
20260508140829 15 344 1.6 1.6 0.00 0.00 0.00 59 1015.0
20260508140326 15 332 0.0 0.0 0.00 0.00 0.00 62 1015.0
20260508135821 14 4 3.2 3.2 0.00 0.00 0.00 70 1015.1
20260508135318 13 262 1.6 1.6 0.00 0.00 0.00 68 1014.9
20260508134814 13 321 0.0 1.6 0.00 0.00 0.00 67 1014.9
20260508134311 12 343 0.0 0.0 0.00 0.00 0.00 75 1015.0
20260508133808 12 339 0.0 1.6 0.00 0.00 0.00 75 1015.4
20260508133306 11 335 0.0 0.0 0.00 0.00 0.00 78 1015.4
20260508132803 11 333 0.0 0.0 0.00 0.00 0.00 78 1015.1
20260508132301 11 324 0.0 0.0 0.00 0.00 0.00 76 1015.1
20260508131756 11 244 3.2 3.2 0.00 0.00 0.00 76 1015.3
20260508131252 11 343 0.0 0.0 0.00 0.00 0.00 76 1015.4
20260508130749 10 345 0.0 0.0 0.00 0.00 0.00 79 1015.6
20260508130246 10 337 0.0 1.6 0.00 0.00 0.00 81 1015.4
20260508125742 9 346 0.0 0.0 0.00 0.00 0.00 82 1015.4
20260508125238 8 348 1.6 1.6 0.00 0.00 0.00 82 1015.5
20260508124737 8 334 0.0 0.0 0.00 0.00 0.00 88 1015.4
20260508124233 7 334 0.0 0.0 0.00 0.00 0.00 96 1015.3
20260508123732 6 334 0.0 0.0 0.00 0.00 0.00 99 1015.3
20260508123229 6 342 0.0 1.6 0.00 0.00 0.00 99 1015.4
20260508122725 6 325 0.0 0.0 0.00 0.00 0.00 99 1015.4
20260508122222 6 325 0.0 0.0 0.00 0.00 0.00 99 1015.5
20260508121720 5 325 0.0 0.0 0.00 0.00 0.00 99 1015.3
20260508121219 4 324 0.0 0.0 0.00 0.00 0.00 99 1015.3
20260508120715 3 325 0.0 0.0 0.00 0.00 0.00 99 1015.5
20260508120213 3 322 0.0 0.0 0.00 0.00 0.00 99 1015.0
20260508115711 2 322 0.0 0.0 0.00 0.00 0.00 99 1015.3
20260508115208 2 322 0.0 0.0 0.00 0.00 0.00 99 1015.1
20260508114704 2 322 0.0 0.0 0.00 0.00 0.00 99 1015.3
20260508114201 2 322 0.0 0.0 0.00 0.00 0.00 99 1015.4
20260508113658 1 322 0.0 0.0 0.00 0.00 0.00 99 1015.4
20260508113156 1 322 0.0 0.0 0.00 0.00 0.00 99 1015.1
20260508112652 1 322 0.0 0.0 0.00 0.00 0.00 99 1015.1
20260508112149 1 322 0.0 0.0 0.00 0.00 0.00 99 1015.4
20260508111645 1 322 0.0 0.0 0.00 0.00 0.00 99 1015.0
20260508111143 1 321 0.0 0.0 0.00 0.00 0.00 99 1015.1
20260508110640 1 321 0.0 0.0 0.00 0.00 0.00 99 1015.1
20260508110137 1 320 0.0 0.0 0.00 0.00 0.00 99 1015.4
20260508105632 1 323 0.0 0.0 0.00 0.00 0.00 99 1014.9
20260508105129 0 321 0.0 0.0 0.00 0.00 0.00 99 1014.6
20260508104627 1 320 0.0 0.0 0.00 0.00 0.00 99 1014.9
20260508104123 1 320 0.0 0.0 0.00 0.00 0.00 99 1014.8
20260508103620 1 320 0.0 0.0 0.00 0.00 0.00 99 1014.7
20260508103117 1 324 0.0 1.6 0.00 0.00 0.00 99 1014.8
20260508102615 1 329 0.0 1.6 0.00 0.00 0.00 99 1014.5
20260508102113 1 336 1.6 3.2 0.00 0.00 0.00 99 1014.8
20260508101610 1 336 1.6 1.6 0.00 0.00 0.00 99 1014.7
20260508101107 1 332 1.6 1.6 0.00 0.00 0.00 99 1014.5
20260508100604 1 331 1.6 1.6 0.00 0.00 0.00 99 1014.6
20260508095558 1 330 0.0 0.0 0.00 0.00 0.00 99 1014.4
20260508095055 1 330 0.0 0.0 0.00 0.00 0.00 99 1014.4
20260508094552 1 330 0.0 0.0 0.00 0.00 0.00 99 1014.4
20260508094049 1 331 0.0 0.0 0.00 0.00 0.00 99 1014.6
20260508093546 1 331 0.0 0.0 0.00 0.00 0.00 99 1014.4
20260508093044 1 330 0.0 0.0 0.00 0.00 0.00 99 1014.4
20260508092541 1 330 0.0 0.0 0.00 0.00 0.00 99 1014.5
20260508092040 1 330 0.0 0.0 0.00 0.00 0.00 99 1014.2
20260508091537 1 330 0.0 0.0 0.00 0.00 0.00 99 1014.4
20260508091033 1 331 0.0 0.0 0.00 0.00 0.00 99 1014.4
20260508090532 1 330 0.0 0.0 0.00 0.00 0.00 99 1014.2
20260508090028 1 330 0.0 0.0 0.00 0.00 0.00 99 1014.4
20260508085524 1 330 0.0 0.0 0.00 0.00 0.00 99 1014.4
20260508085021 1 331 0.0 0.0 0.00 0.00 0.00 99 1014.4
20260508084518 1 331 0.0 0.0 0.00 0.00 0.00 99 1014.2
20260508084016 1 330 0.0 0.0 0.00 0.00 0.00 99 1014.5
20260508083513 1 331 0.0 0.0 0.00 0.00 0.00 99 1014.4
20260508083009 1 331 0.0 0.0 0.00 0.00 0.00 99 1014.1
20260508082505 1 331 0.0 1.6 0.00 0.00 0.00 99 1014.2
20260508082003 1 331 0.0 1.6 0.00 0.00 0.00 99 1014.4
20260508081500 1 331 0.0 0.0 0.00 0.00 0.00 99 1014.3
20260508080955 1 330 0.0 0.0 0.00 0.00 0.00 99 1014.4
20260508080454 2 331 0.0 0.0 0.00 0.00 0.00 99 1014.3
20260508075951 2 331 0.0 0.0 0.00 0.00 0.00 99 1014.3
20260508075448 2 331 0.0 1.6 0.00 0.00 0.00 99 1014.2
20260508074945 2 331 1.6 1.6 0.00 0.00 0.00 99 1014.2
20260508074443 2 329 0.0 0.0 0.00 0.00 0.00 99 1014.3
20260508073940 2 329 0.0 0.0 0.00 0.00 0.00 99 1014.4
20260508073437 2 328 0.0 0.0 0.00 0.00 0.00 99 1014.2
20260508072934 2 328 0.0 0.0 0.00 0.00 0.00 99 1014.2
20260508072430 2 329 0.0 0.0 0.00 0.00 0.00 99 1014.2
20260508071928 2 327 0.0 0.0 0.00 0.00 0.00 99 1014.1
20260508071425 2 326 0.0 0.0 0.00 0.00 0.00 99 1014.5
20260508070923 2 326 0.0 0.0 0.00 0.00 0.00 99 1014.2
20260508070421 2 330 0.0 0.0 0.00 0.00 0.00 99 1014.1
20260508065918 2 331 0.0 1.6 0.00 0.00 0.00 99 1014.1
20260508065416 2 331 0.0 1.6 0.00 0.00 0.00 99 1014.1
20260508064914 2 330 1.6 1.6 0.00 0.00 0.00 99 1013.8
20260508064411 2 328 1.6 1.6 0.00 0.00 0.00 99 1014.2
20260508063909 2 335 1.6 1.6 0.00 0.00 0.00 99 1014.3
20260508063407 2 335 1.6 1.6 0.00 0.00 0.00 99 1014.2
20260508062903 2 338 1.6 3.2 0.00 0.00 0.00 99 1014.2
20260508062401 2 337 1.6 3.2 0.00 0.00 0.00 99 1014.1
20260508061858 2 332 1.6 3.2 0.00 0.00 0.00 99 1014.3
20260508061355 2 330 0.0 0.0 0.00 0.00 0.00 99 1014.3
20260508060851 2 330 0.0 0.0 0.00 0.00 0.00 99 1014.4
20260508060350 3 331 0.0 0.0 0.00 0.00 0.00 99 1014.2
20260508055844 3 331 0.0 0.0 0.00 0.00 0.00 99 1014.3
20260508055342 3 332 1.6 1.6 0.00 0.00 0.00 99 1014.3
20260508054838 3 331 1.6 1.6 0.00 0.00 0.00 99 1014.5
20260508054336 3 330 0.0 0.0 0.00 0.00 0.00 99 1014.1
20260508053832 3 329 0.0 0.0 0.00 0.00 0.00 99 1014.4
20260508053330 3 329 0.0 0.0 0.00 0.00 0.00 99 1014.2
20260508052827 3 330 0.0 0.0 0.00 0.00 0.00 99 1014.2
20260508052324 3 338 1.6 1.6 0.00 0.00 0.00 99 1014.2
20260508051821 3 346 1.6 1.6 0.00 0.00 0.00 99 1014.1
20260508051316 3 339 1.6 3.2 0.00 0.00 0.00 99 1014.0
20260508050813 3 340 3.2 3.2 0.00 0.00 0.00 99 1014.2
20260508050310 3 336 1.6 1.6 0.00 0.00 0.00 99 1014.2
20260508045805 3 333 0.0 1.6 0.00 0.00 0.00 99 1014.2
20260508045306 3 333 0.0 0.0 0.00 0.00 0.00 99 1014.2
20260508044801 3 334 0.0 0.0 0.00 0.00 0.00 99 1014.3
20260508044257 3 335 1.6 1.6 0.00 0.00 0.00 99 1014.2
20260508043753 4 339 1.6 3.2 0.00 0.00 0.00 98 1014.2
20260508043251 4 332 1.6 1.6 0.00 0.00 0.00 98 1014.2
20260508042747 4 333 1.6 1.6 0.00 0.00 0.00 98 1014.0
20260508042245 4 334 1.6 1.6 0.00 0.00 0.00 97 1014.1
20260508041741 4 330 0.0 0.0 0.00 0.00 0.00 97 1014.2
20260508041238 4 330 0.0 0.0 0.00 0.00 0.00 96 1014.1
20260508040735 5 330 0.0 0.0 0.00 0.00 0.00 96 1014.0
20260508040232 5 336 3.2 3.2 0.00 0.00 0.00 96 1014.3
20260508035729 5 333 1.6 1.6 0.00 0.00 0.00 96 1014.2
20260508035227 5 341 1.6 3.2 0.00 0.00 0.00 95 1014.2
20260508034723 5 334 1.6 1.6 0.00 0.00 0.00 95 1014.1
20260508034221 5 332 0.0 0.0 0.00 0.00 0.00 95 1014.1
20260508033717 5 336 1.6 1.6 0.00 0.00 0.00 94 1014.0
20260508033216 5 335 1.6 1.6 0.00 0.00 0.00 94 1014.0
20260508032713 5 334 1.6 1.6 0.00 0.00 0.00 93 1014.1
20260508032209 5 331 0.0 0.0 0.00 0.00 0.00 93 1014.3
20260508031707 5 322 0.0 0.0 0.00 0.00 0.00 92 1014.2
20260508031203 5 322 0.0 1.6 0.00 0.00 0.00 91 1014.2
20260508030659 6 325 1.6 1.6 0.00 0.00 0.00 91 1014.0
20260508030157 6 328 1.6 3.2 0.00 0.00 0.00 90 1013.9
20260508025653 6 343 3.2 3.2 0.00 0.00 0.00 89 1014.0
20260508025150 6 336 3.2 3.2 0.00 0.00 0.00 88 1013.9
20260508024646 6 338 1.6 3.2 0.00 0.00 0.00 88 1013.9
20260508024144 6 339 1.6 3.2 0.00 0.00 0.00 87 1013.6
20260508023639 6 337 3.2 3.2 0.00 0.00 0.00 87 1013.8
20260508023137 6 342 3.2 3.2 0.00 0.00 0.00 87 1013.7
20260508022633 6 338 3.2 3.2 0.00 0.00 0.00 86 1013.7
20260508022130 7 342 3.2 3.2 0.00 0.00 0.00 85 1013.5
20260508021626 7 341 3.2 3.2 0.00 0.00 0.00 84 1013.5
20260508021122 7 333 3.2 3.2 0.00 0.00 0.00 81 1013.5
20260508020620 7 340 3.2 3.2 0.00 0.00 0.00 80 1013.5
20260508020117 7 335 1.6 3.2 0.00 0.00 0.00 79 1013.3
20260508015615 7 340 3.2 3.2 0.00 0.00 0.00 79 1013.1
20260508015111 8 335 1.6 1.6 0.00 0.00 0.00 79 1013.2
20260508014607 8 353 3.2 3.2 0.00 0.00 0.00 78 1013.1
20260508014104 8 340 3.2 3.2 0.00 0.00 0.00 78 1012.9
20260508013600 8 335 3.2 3.2 0.00 0.00 0.00 76 1013.0
20260508013057 8 342 4.8 4.8 0.00 0.00 0.00 74 1012.8
20260508012555 9 336 1.6 3.2 0.00 0.00 0.00 72 1012.6
20260508012052 9 319 1.6 1.6 0.00 0.00 0.00 71 1012.8
20260508011550 9 318 0.0 1.6 0.00 0.00 0.00 70 1012.4
20260508011047 10 318 0.0 1.6 0.00 0.00 0.00 69 1012.6
20260508010544 10 316 0.0 1.6 0.00 0.00 0.00 68 1012.5
20260508010041 10 316 0.0 0.0 0.00 0.00 0.00 66 1012.3
20260508005537 10 315 0.0 0.0 0.00 0.00 0.00 67 1012.2
20260508005035 10 315 0.0 0.0 0.00 0.00 0.00 70 1012.3
20260508004530 10 315 0.0 0.0 0.00 0.00 0.00 68 1012.1
20260508004027 10 315 0.0 0.0 0.00 0.00 0.00 65 1012.3
20260508003524 10 315 0.0 0.0 0.00 0.00 0.00 65 1012.3
20260508003022 11 315 0.0 0.0 0.00 0.00 0.00 63 1012.2
20260508002517 11 318 0.0 0.0 0.00 0.00 0.00 62 1012.1
20260508002015 11 318 0.0 0.0 0.00 0.00 0.00 61 1012.1
20260508001511 11 320 0.0 0.0 0.00 0.00 0.00 63 1011.9
20260508001007 12 313 0.0 0.0 0.00 0.00 0.00 61 1011.8
20260508000503 12 301 1.6 1.6 0.00 0.00 0.00 62 1011.8
20260508000000 13 336 1.6 1.6 0.00 0.00 0.00 60 1011.7
20260507235456 13 334 0.0 0.0 0.00 0.00 0.00 56 1011.6
20260507234954 14 315 0.0 0.0 0.00 0.00 0.00 50 1011.9
20260507234451 15 223 1.6 3.2 0.00 0.00 0.00 49 1011.6
20260507233949 15 95 6.4 9.7 0.00 0.00 0.00 39 1011.3
20260507233444 15 298 1.6 3.2 0.00 0.00 0.00 46 1011.4
20260507232943 15 75 3.2 3.2 0.00 0.00 0.00 38 1011.2
20260507232439 15 243 4.8 4.8 0.00 0.00 0.00 42 1011.4
20260507231936 16 300 1.6 1.6 0.00 0.00 0.00 38 1011.4
20260507231432 16 12 4.8 4.8 0.00 0.00 0.00 36 1011.2
20260507230929 16 121 3.2 3.2 0.00 0.00 0.00 37 1011.2
20260507230427 16 28 3.2 3.2 0.00 0.00 0.00 39 1011.0
20260507225926 16 256 3.2 3.2 0.00 0.00 0.00 36 1011.3
20260507225423 16 337 0.0 0.0 0.00 0.00 0.00 39 1011.3
20260507224919 16 10 1.6 3.2 0.00 0.00 0.00 34 1011.1
20260507224415 16 200 4.8 4.8 0.00 0.00 0.00 35 1011.1
20260507223912 16 211 6.4 8.0 0.00 0.00 0.00 37 1011.0
20260507223408 16 238 8.0 8.0 0.00 0.00 0.00 35 1011.1
20260507222905 17 78 8.0 9.7 0.00 0.00 0.00 35 1011.0
20260507222402 17 255 6.4 8.0 0.00 0.00 0.00 37 1011.1
20260507221859 17 298 3.2 4.8 0.00 0.00 0.00 37 1011.0
20260507221355 17 16 4.8 8.0 0.00 0.00 0.00 38 1011.1
20260507220851 17 128 3.2 3.2 0.00 0.00 0.00 36 1011.0
20260507220350 17 140 8.0 9.7 0.00 0.00 0.00 36 1011.1
20260507215846 17 264 8.0 11.3 0.00 0.00 0.00 37 1010.8
20260507215342 17 53 6.4 9.7 0.00 0.00 0.00 37 1011.0
20260507214840 17 71 1.6 3.2 0.00 0.00 0.00 40 1011.0
20260507214337 17 282 4.8 4.8 0.00 0.00 0.00 39 1010.8
20260507213832 17 253 4.8 8.0 0.00 0.00 0.00 40 1010.6
20260507213329 18 139 8.0 9.7 0.00 0.00 0.00 38 1010.6
20260507212826 18 135 3.2 8.0 0.00 0.00 0.00 41 1010.6
20260507212322 18 80 4.8 4.8 0.00 0.00 0.00 42 1010.5
20260507211819 17 296 1.6 1.6 0.00 0.00 0.00 42 1010.8
20260507211315 16 128 9.7 11.3 0.00 0.00 0.00 44 1010.6
20260507210813 17 72 4.8 4.8 0.00 0.00 0.00 42 1010.7
20260507210309 17 299 1.6 3.2 0.00 0.00 0.00 43 1010.5
20260507205805 16 226 4.8 4.8 0.00 0.00 0.00 44 1010.5
20260507205306 17 354 4.8 9.7 0.00 0.00 0.00 42 1010.6
20260507204758 17 237 4.8 4.8 0.00 0.00 0.00 43 1010.3
20260507204257 18 324 0.0 0.0 0.00 0.00 0.00 41 1010.4
20260507203754 17 268 1.6 3.2 0.00 0.00 0.00 50 1010.3
20260507203252 17 92 11.3 12.9 0.00 0.00 0.00 42 1010.6
20260507202748 17 225 4.8 4.8 0.00 0.00 0.00 43 1010.3
20260507202244 16 79 4.8 4.8 0.00 0.00 0.00 43 1010.5
20260507201738 16 230 4.8 4.8 0.00 0.00 0.00 46 1010.4
20260507201236 17 161 3.2 8.0 0.00 0.00 0.00 43 1010.5
20260507200732 18 101 3.2 4.8 0.00 0.00 0.00 41 1010.6
20260507200228 18 6 8.0 11.3 0.00 0.00 0.00 41 1010.5
20260507195725 17 194 6.4 9.7 0.00 0.00 0.00 45 1010.5
20260507195222 16 123 4.8 8.0 0.00 0.00 0.00 45 1010.8
20260507194719 18 91 4.8 9.7 0.00 0.00 0.00 42 1010.7
20260507194215 17 102 4.8 4.8 0.00 0.00 0.00 44 1010.7
20260507193712 16 127 6.4 11.3 0.00 0.00 0.00 45 1010.8
20260507193208 17 114 9.7 9.7 0.00 0.00 0.00 46 1010.8
20260507192704 17 123 6.4 8.0 0.00 0.00 0.00 44 1010.7
20260507192201 17 206 4.8 4.8 0.00 0.00 0.00 47 1010.7
20260507191657 18 223 6.4 9.7 0.00 0.00 0.00 50 1010.9
20260507191154 17 219 6.4 8.0 0.00 0.00 0.00 47 1010.9
20260507190651 18 240 4.8 8.0 0.00 0.00 0.00 46 1010.9
20260507190150 17 301 0.0 1.6 0.00 0.00 0.00 46 1010.8
20260507185648 17 35 4.8 4.8 0.00 0.00 0.00 44 1011.1
20260507185144 17 138 4.8 9.7 0.00 0.00 0.00 44 1011.3
20260507184642 17 302 1.6 3.2 0.00 0.00 0.00 45 1011.3
20260507184140 16 276 3.2 3.2 0.00 0.00 0.00 50 1011.1
20260507183636 17 220 4.8 4.8 0.00 0.00 0.00 51 1011.3
20260507183133 17 283 6.4 9.7 0.00 0.00 0.00 46 1011.3
20260507182630 16 348 1.6 3.2 0.00 0.00 0.00 51 1011.5
20260507182126 16 90 11.3 14.5 0.00 0.00 0.00 49 1011.4
20260507181622 16 352 1.6 1.6 0.00 0.00 0.00 54 1011.3
20260507181119 17 153 6.4 11.3 0.00 0.00 0.00 53 1011.3
20260507180615 17 76 8.0 11.3 0.00 0.00 0.00 47 1011.2
20260507180113 16 214 8.0 9.7 0.00 0.00 0.00 51 1011.3
20260507175608 17 197 6.4 8.0 0.00 0.00 0.00 50 1011.3
20260507175106 17 328 1.6 1.6 0.00 0.00 0.00 55 1011.5
20260507174603 17 160 6.4 8.0 0.00 0.00 0.00 54 1011.5
20260507174101 17 104 3.2 4.8 0.00 0.00 0.00 53 1012.0
20260507173557 17 254 4.8 8.0 0.00 0.00 0.00 51 1011.6
20260507173055 17 115 3.2 4.8 0.00 0.00 0.00 53 1011.8
20260507172550 16 29 3.2 3.2 0.00 0.00 0.00 52 1011.6
20260507172048 16 126 6.4 8.0 0.00 0.00 0.00 55 1011.6
20260507171543 15 42 3.2 3.2 0.00 0.00 0.00 56 1011.9
20260507171040 15 110 4.8 4.8 0.00 0.00 0.00 57 1011.9
20260507170537 16 164 9.7 11.3 0.00 0.00 0.00 54 1012.0
20260507170034 15 145 8.0 9.7 0.00 0.00 0.00 54 1012.0
20260507165530 16 288 1.6 3.2 0.00 0.00 0.00 55 1012.0
20260507165026 16 349 1.6 1.6 0.00 0.00 0.00 52 1012.0
20260507164522 15 22 6.4 8.0 0.00 0.00 0.00 52 1012.1
20260507164020 15 243 6.4 9.7 0.00 0.00 0.00 55 1012.0
20260507163516 15 18 3.2 3.2 0.00 0.00 0.00 53 1012.2
20260507163015 15 308 1.6 1.6 0.00 0.00 0.00 58 1012.2
20260507162509 15 357 1.6 1.6 0.00 0.00 0.00 58 1012.1
20260507162006 15 288 1.6 3.2 0.00 0.00 0.00 55 1012.3
20260507161503 15 322 1.6 1.6 0.00 0.00 0.00 54 1012.1
20260507161000 15 206 1.6 3.2 0.00 0.00 0.00 54 1012.4
20260507160455 14 337 0.0 1.6 0.00 0.00 0.00 62 1012.3
20260507155951 15 47 3.2 3.2 0.00 0.00 0.00 56 1012.6
20260507155448 15 351 1.6 1.6 0.00 0.00 0.00 58 1012.3
20260507154945 14 100 4.8 4.8 0.00 0.00 0.00 58 1012.6
20260507154441 15 131 8.0 9.7 0.00 0.00 0.00 57 1012.5
20260507153939 15 62 3.2 3.2 0.00 0.00 0.00 56 1012.5
20260507153435 15 265 3.2 4.8 0.00 0.00 0.00 55 1012.5
20260507152931 13 190 8.0 9.7 0.00 0.00 0.00 59 1012.4
20260507152428 14 262 1.6 4.8 0.00 0.00 0.00 57 1012.5
20260507151924 15 12 9.7 11.3 0.00 0.00 0.00 56 1012.3